When you browse on this site, cookies collect data to enhance your experience and personalize the content and advertising you see.
Visit our Privacy Policy to learn more. By continuing to use the site, you agree to this use of cookies and data.

Meteo orario Anchorage

Oggi, 11 Agosto, Martedi

Tempo Temperatura Precipitazioni Vento Pressione Umidità
00:00 +14°C° 0.1 mm 1 m/s 756 mm Hg 84%
01:00 +14°C° 0.1 mm 1 m/s 756 mm Hg 85%
02:00 +14°C° 0.1 mm 1 m/s 756 mm Hg 86%
03:00 +14°C° 0.2 mm 1 m/s 756 mm Hg 87%
04:00 +13°C° 0.2 mm 1 m/s 757 mm Hg 89%
05:00 +13°C° 0.2 mm 1 m/s 757 mm Hg 90%
06:00 +14°C° 0.4 mm 1 m/s 757 mm Hg 89%
07:00 +14°C° 0.4 mm 1 m/s 757 mm Hg 88%
08:00 +15°C° 0.4 mm 1 m/s 756 mm Hg 87%
09:00 +15°C° 0.7 mm 1 m/s 757 mm Hg 88%
10:00 +14°C° 0.7 mm 0 m/s 757 mm Hg 88%
11:00 +14°C° 0.7 mm 0 m/s 757 mm Hg 89%
12:00 +15°C° 0.8 mm 1 m/s 757 mm Hg 86%
13:00 +16°C° 0.8 mm 1 m/s 756 mm Hg 84%
14:00 +16°C° 0.8 mm 2 m/s 756 mm Hg 82%
15:00 +16°C° 0.4 mm 2 m/s 756 mm Hg 81%
16:00 +16°C° 0.4 mm 2 m/s 756 mm Hg 80%
17:00 +16°C° 0.4 mm 2 m/s 756 mm Hg 79%
18:00 +15°C° 0.2 mm 2 m/s 756 mm Hg 82%
19:00 +14°C° 0.2 mm 2 m/s 756 mm Hg 85%
20:00 +13°C° 0.2 mm 2 m/s 756 mm Hg 87%
21:00 +13°C° 0 mm 2 m/s 756 mm Hg 87%
22:00 +12°C° 0 mm 2 m/s 756 mm Hg 86%
23:00 +12°C° 0 mm 2 m/s 756 mm Hg 86%

Domani, 12 Agosto, Mercoledi

Tempo Temperatura Precipitazioni Vento Pressione Umidità
00:00 +12°C° 0 mm 1 m/s 756 mm Hg 86%
01:00 +11°C° 0 mm 1 m/s 756 mm Hg 86%
02:00 +10°C° 0 mm 0 m/s 756 mm Hg 86%
03:00 +10°C° 0 mm 0 m/s 756 mm Hg 87%
04:00 +10°C° 0 mm 0 m/s 756 mm Hg 88%
05:00 +10°C° 0 mm 0 m/s 756 mm Hg 89%
06:00 +12°C° 0.1 mm 1 m/s 755 mm Hg 87%
07:00 +13°C° 0.1 mm 1 m/s 755 mm Hg 85%
08:00 +14°C° 0.1 mm 1 m/s 755 mm Hg 83%
09:00 +15°C° 0.1 mm 1 m/s 755 mm Hg 80%
10:00 +16°C° 0.1 mm 1 m/s 755 mm Hg 77%
11:00 +18°C° 0.1 mm 1 m/s 755 mm Hg 74%
12:00 +18°C° 0.2 mm 1 m/s 755 mm Hg 72%
13:00 +18°C° 0.2 mm 1 m/s 754 mm Hg 70%
14:00 +19°C° 0.2 mm 1 m/s 754 mm Hg 69%
15:00 +19°C° 0.2 mm 1 m/s 754 mm Hg 70%
16:00 +17°C° 0.2 mm 2 m/s 754 mm Hg 72%
17:00 +17°C° 0.2 mm 2 m/s 754 mm Hg 74%
18:00 +15°C° 0.1 mm 2 m/s 755 mm Hg 79%
19:00 +14°C° 0.1 mm 1 m/s 755 mm Hg 83%
20:00 +13°C° 0.1 mm 1 m/s 755 mm Hg 88%
21:00 +13°C° 0 mm 1 m/s 756 mm Hg 88%
22:00 +13°C° 0 mm 1 m/s 756 mm Hg 89%
23:00 +13°C° 0 mm 1 m/s 756 mm Hg 89%

Dopodomani, 13 Agosto, Giovedi

Tempo Temperatura Precipitazioni Vento Pressione Umidità
00:00 +12°C° 0 mm 1 m/s 757 mm Hg 90%
01:00 +12°C° 0 mm 1 m/s 757 mm Hg 91%
02:00 +12°C° 0 mm 1 m/s 757 mm Hg 92%
03:00 +12°C° 0 mm 1 m/s 757 mm Hg 92%
04:00 +11°C° 0 mm 0 m/s 757 mm Hg 93%
05:00 +11°C° 0 mm 0 m/s 757 mm Hg 93%
06:00 +12°C° 0 mm 0 m/s 757 mm Hg 89%
07:00 +14°C° 0 mm 1 m/s 757 mm Hg 86%
08:00 +15°C° 0 mm 1 m/s 757 mm Hg 82%
09:00 +16°C° 0 mm 1 m/s 757 mm Hg 79%
10:00 +18°C° 0 mm 1 m/s 757 mm Hg 75%
11:00 +19°C° 0 mm 1 m/s 757 mm Hg 71%
12:00 +20°C° 0 mm 1 m/s 757 mm Hg 69%
13:00 +20°C° 0 mm 1 m/s 757 mm Hg 67%
14:00 +21°C° 0 mm 1 m/s 757 mm Hg 65%
15:00 +21°C° 0 mm 1 m/s 757 mm Hg 65%
16:00 +21°C° 0 mm 1 m/s 757 mm Hg 65%
17:00 +20°C° 0 mm 1 m/s 757 mm Hg 65%
18:00 +19°C° 0 mm 1 m/s 757 mm Hg 72%
19:00 +16°C° 0 mm 1 m/s 758 mm Hg 78%
20:00 +14°C° 0 mm 1 m/s 758 mm Hg 85%
21:00 +14°C° 0 mm 1 m/s 758 mm Hg 85%
22:00 +14°C° 0 mm 1 m/s 758 mm Hg 85%
23:00 +13°C° 0 mm 1 m/s 758 mm Hg 85%

14 Agosto, Venerdi

Tempo Temperatura Precipitazioni Vento Pressione Umidità
00:00 +13°C° 0 mm 1 m/s 759 mm Hg 85%
01:00 +13°C° 0 mm 1 m/s 759 mm Hg 85%
02:00 +13°C° 0 mm 1 m/s 759 mm Hg 85%
03:00 +13°C° 0 mm 1 m/s 759 mm Hg 86%
04:00 +13°C° 0 mm 1 m/s 759 mm Hg 86%
05:00 +12°C° 0 mm 0 m/s 759 mm Hg 86%
06:00 +14°C° 0 mm 1 m/s 759 mm Hg 82%
07:00 +15°C° 0 mm 1 m/s 759 mm Hg 78%
08:00 +18°C° 0 mm 1 m/s 759 mm Hg 74%
09:00 +19°C° 0.1 mm 1 m/s 759 mm Hg 71%
10:00 +20°C° 0.1 mm 1 m/s 759 mm Hg 69%
11:00 +21°C° 0.1 mm 1 m/s 759 mm Hg 66%
12:00 +21°C° 0.3 mm 1 m/s 759 mm Hg 65%
13:00 +22°C° 0.3 mm 1 m/s 759 mm Hg 63%
14:00 +22°C° 0.3 mm 1 m/s 758 mm Hg 62%
15:00 +22°C° 0.1 mm 1 m/s 758 mm Hg 63%
16:00 +22°C° 0.1 mm 1 m/s 758 mm Hg 63%
17:00 +22°C° 0.1 mm 1 m/s 758 mm Hg 64%
18:00 +20°C° 0.1 mm 1 m/s 758 mm Hg 69%
19:00 +18°C° 0.1 mm 1 m/s 759 mm Hg 75%
20:00 +16°C° 0.1 mm 1 m/s 759 mm Hg 81%
21:00 +15°C° 0 mm 1 m/s 759 mm Hg 80%
22:00 +15°C° 0 mm 1 m/s 759 mm Hg 80%
23:00 +14°C° 0 mm 2 m/s 759 mm Hg 80%

15 Agosto, Sabato

Tempo Temperatura Precipitazioni Vento Pressione Umidità
00:00 +14°C° 0 mm 1 m/s 759 mm Hg 82%
01:00 +13°C° 0 mm 1 m/s 759 mm Hg 85%
02:00 +13°C° 0 mm 1 m/s 759 mm Hg 87%
03:00 +13°C° 0 mm 1 m/s 759 mm Hg 88%
04:00 +13°C° 0 mm 1 m/s 759 mm Hg 88%
05:00 +11°C° 0 mm 0 m/s 759 mm Hg 89%
06:00 +14°C° 0 mm 1 m/s 759 mm Hg 86%
07:00 +15°C° 0 mm 1 m/s 759 mm Hg 82%
08:00 +18°C° 0 mm 1 m/s 759 mm Hg 79%
09:00 +19°C° 0 mm 1 m/s 759 mm Hg 75%
10:00 +20°C° 0 mm 1 m/s 759 mm Hg 72%
11:00 +21°C° 0 mm 1 m/s 758 mm Hg 68%
12:00 +22°C° 0 mm 1 m/s 758 mm Hg 65%
13:00 +21°C° 0 mm 2 m/s 758 mm Hg 61%
14:00 +23°C° 0 mm 2 m/s 758 mm Hg 58%
15:00 +23°C° 0 mm 2 m/s 757 mm Hg 60%
16:00 +23°C° 0 mm 2 m/s 757 mm Hg 61%
17:00 +21°C° 0 mm 2 m/s 757 mm Hg 63%
18:00 +21°C° 0 mm 1 m/s 757 mm Hg 69%
19:00 +19°C° 0 mm 1 m/s 757 mm Hg 75%
20:00 +16°C° 0 mm 1 m/s 757 mm Hg 81%
21:00 +16°C° 0 mm 1 m/s 757 mm Hg 81%
22:00 +15°C° 0 mm 1 m/s 757 mm Hg 82%
23:00 +15°C° 0 mm 1 m/s 757 mm Hg 82%

16 Agosto, Domenica

Tempo Temperatura Precipitazioni Vento Pressione Umidità
00:00 +14°C° 0 mm 1 m/s 757 mm Hg 83%
01:00 +14°C° 0 mm 1 m/s 757 mm Hg 83%
02:00 +13°C° 0 mm 1 m/s 757 mm Hg 84%
03:00 +13°C° 0 mm 1 m/s 757 mm Hg 84%
04:00 +13°C° 0 mm 1 m/s 757 mm Hg 84%
05:00 +13°C° 0 mm 1 m/s 757 mm Hg 85%
06:00 +14°C° 0 mm 1 m/s 756 mm Hg 80%
07:00 +16°C° 0 mm 1 m/s 756 mm Hg 75%
08:00 +19°C° 0 mm 1 m/s 756 mm Hg 71%
09:00 +20°C° 0 mm 1 m/s 756 mm Hg 68%
10:00 +21°C° 0 mm 1 m/s 755 mm Hg 64%
11:00 +22°C° 0 mm 1 m/s 755 mm Hg 61%
12:00 +23°C° 0 mm 1 m/s 755 mm Hg 59%
13:00 +23°C° 0 mm 1 m/s 755 mm Hg 56%
14:00 +24°C° 0 mm 1 m/s 755 mm Hg 54%
15:00 +24°C° 0 mm 1 m/s 755 mm Hg 56%
16:00 +23°C° 0 mm 1 m/s 755 mm Hg 58%
17:00 +23°C° 0 mm 1 m/s 754 mm Hg 60%
18:00 +21°C° 0 mm 1 m/s 755 mm Hg 63%
19:00 +19°C° 0 mm 1 m/s 755 mm Hg 66%
20:00 +18°C° 0 mm 1 m/s 755 mm Hg 69%
21:00 +16°C° 0 mm 2 m/s 755 mm Hg 67%
22:00 +16°C° 0 mm 2 m/s 756 mm Hg 65%
23:00 +16°C° 0 mm 3 m/s 756 mm Hg 64%
Mostrare altro